When you browse on this site, cookies collect data to enhance your experience and personalize the content and advertising you see.
Visit our Privacy Policy to learn more. By continuing to use the site, you agree to this use of cookies and data.

Hourly Weather Trostyanec

Today, 3 August, Monday

Time Temperature Precipitation Wind Pressure Humidity
00:00 +14°C° 0 mm 2 mps 750 mmHg 91%
01:00 +13°C° 0 mm 2 mps 750 mmHg 92%
02:00 +13°C° 0 mm 2 mps 750 mmHg 94%
03:00 +13°C° 0 mm 2 mps 750 mmHg 94%
04:00 +13°C° 0 mm 1 mps 751 mmHg 94%
05:00 +13°C° 0 mm 1 mps 751 mmHg 94%
06:00 +15°C° 0 mm 1 mps 751 mmHg 86%
07:00 +18°C° 0 mm 1 mps 751 mmHg 78%
08:00 +19°C° 0 mm 2 mps 752 mmHg 68%
09:00 +20°C° 0 mm 2 mps 752 mmHg 62%
10:00 +21°C° 0 mm 2 mps 752 mmHg 56%
11:00 +24°C° 0 mm 2 mps 752 mmHg 51%
12:00 +24°C° 0 mm 1 mps 752 mmHg 48%
13:00 +25°C° 0 mm 1 mps 752 mmHg 45%
14:00 +26°C° 0 mm 1 mps 752 mmHg 43%
15:00 +25°C° 0 mm 1 mps 752 mmHg 44%
16:00 +25°C° 0 mm 1 mps 752 mmHg 45%
17:00 +25°C° 0 mm 1 mps 751 mmHg 46%
18:00 +23°C° 0 mm 1 mps 752 mmHg 50%
19:00 +20°C° 0 mm 2 mps 752 mmHg 55%
20:00 +18°C° 0 mm 2 mps 752 mmHg 60%
21:00 +18°C° 0 mm 2 mps 752 mmHg 62%
22:00 +17°C° 0 mm 2 mps 752 mmHg 64%
23:00 +17°C° 0 mm 2 mps 752 mmHg 66%

Tomorrow, 4 August, Tuesday

Time Temperature Precipitation Wind Pressure Humidity
00:00 +16°C° 0 mm 2 mps 752 mmHg 68%
01:00 +16°C° 0 mm 2 mps 753 mmHg 71%
02:00 +15°C° 0 mm 2 mps 753 mmHg 74%
03:00 +15°C° 0 mm 2 mps 753 mmHg 76%
04:00 +15°C° 0 mm 2 mps 752 mmHg 77%
05:00 +15°C° 0 mm 2 mps 752 mmHg 78%
06:00 +17°C° 0 mm 2 mps 753 mmHg 73%
07:00 +19°C° 0 mm 3 mps 753 mmHg 67%
08:00 +21°C° 0 mm 3 mps 753 mmHg 61%
09:00 +22°C° 0 mm 3 mps 753 mmHg 56%
10:00 +25°C° 0 mm 3 mps 753 mmHg 51%
11:00 +26°C° 0 mm 3 mps 753 mmHg 46%
12:00 +27°C° 0 mm 2 mps 753 mmHg 44%
13:00 +27°C° 0 mm 2 mps 753 mmHg 42%
14:00 +28°C° 0 mm 2 mps 752 mmHg 40%
15:00 +27°C° 0 mm 2 mps 752 mmHg 43%
16:00 +27°C° 0 mm 2 mps 752 mmHg 45%
17:00 +27°C° 0 mm 2 mps 752 mmHg 48%
18:00 +25°C° 0 mm 3 mps 752 mmHg 53%
19:00 +22°C° 0 mm 3 mps 752 mmHg 58%
20:00 +20°C° 0 mm 3 mps 752 mmHg 62%
21:00 +19°C° 0 mm 3 mps 752 mmHg 64%
22:00 +19°C° 0 mm 3 mps 752 mmHg 65%
23:00 +18°C° 0 mm 2 mps 752 mmHg 67%

Day after tomorrow, 5 August, Wednesday

Time Temperature Precipitation Wind Pressure Humidity
00:00 +17°C° 0 mm 2 mps 753 mmHg 69%
01:00 +17°C° 0 mm 2 mps 753 mmHg 71%
02:00 +16°C° 0 mm 2 mps 753 mmHg 73%
03:00 +16°C° 0 mm 2 mps 753 mmHg 74%
04:00 +16°C° 0 mm 2 mps 753 mmHg 76%
05:00 +16°C° 0 mm 2 mps 753 mmHg 78%
06:00 +18°C° 0 mm 2 mps 753 mmHg 71%
07:00 +20°C° 0 mm 2 mps 753 mmHg 64%
08:00 +23°C° 0 mm 2 mps 754 mmHg 58%
09:00 +24°C° 0 mm 3 mps 754 mmHg 53%
10:00 +26°C° 0 mm 3 mps 754 mmHg 49%
11:00 +27°C° 0 mm 3 mps 754 mmHg 44%
12:00 +28°C° 0 mm 3 mps 754 mmHg 43%
13:00 +28°C° 0 mm 3 mps 754 mmHg 41%
14:00 +29°C° 0 mm 3 mps 753 mmHg 39%
15:00 +28°C° 0 mm 3 mps 753 mmHg 43%
16:00 +28°C° 0 mm 3 mps 753 mmHg 46%
17:00 +28°C° 0 mm 3 mps 753 mmHg 50%
18:00 +26°C° 0 mm 3 mps 753 mmHg 56%
19:00 +24°C° 0 mm 3 mps 753 mmHg 62%
20:00 +21°C° 0 mm 3 mps 754 mmHg 68%
21:00 +20°C° 0 mm 3 mps 754 mmHg 70%
22:00 +19°C° 0 mm 2 mps 754 mmHg 73%
23:00 +19°C° 0 mm 2 mps 754 mmHg 75%

6 August, Thursday

Time Temperature Precipitation Wind Pressure Humidity
00:00 +18°C° 0 mm 2 mps 754 mmHg 77%
01:00 +18°C° 0 mm 3 mps 754 mmHg 79%
02:00 +17°C° 0 mm 3 mps 754 mmHg 81%
03:00 +17°C° 0 mm 3 mps 754 mmHg 82%
04:00 +17°C° 0 mm 2 mps 754 mmHg 83%
05:00 +17°C° 0 mm 2 mps 754 mmHg 83%
06:00 +19°C° 0 mm 3 mps 754 mmHg 77%
07:00 +21°C° 0 mm 3 mps 754 mmHg 70%
08:00 +24°C° 0 mm 3 mps 754 mmHg 64%
09:00 +25°C° 0 mm 4 mps 754 mmHg 59%
10:00 +27°C° 0 mm 4 mps 754 mmHg 55%
11:00 +28°C° 0 mm 5 mps 754 mmHg 50%
12:00 +29°C° 0 mm 5 mps 754 mmHg 49%
13:00 +29°C° 0 mm 5 mps 754 mmHg 48%
14:00 +30°C° 0 mm 4 mps 754 mmHg 46%
15:00 +29°C° 0 mm 4 mps 754 mmHg 49%
16:00 +29°C° 0 mm 4 mps 754 mmHg 51%
17:00 +28°C° 0 mm 4 mps 754 mmHg 54%
18:00 +26°C° 0 mm 4 mps 754 mmHg 61%
19:00 +24°C° 0 mm 3 mps 754 mmHg 68%
20:00 +22°C° 0 mm 3 mps 754 mmHg 75%
21:00 +21°C° 0 mm 3 mps 754 mmHg 77%
22:00 +20°C° 0 mm 3 mps 754 mmHg 78%
23:00 +19°C° 0 mm 3 mps 754 mmHg 80%

7 August, Friday

Time Temperature Precipitation Wind Pressure Humidity
00:00 +19°C° 0 mm 3 mps 754 mmHg 81%
01:00 +19°C° 0 mm 3 mps 754 mmHg 82%
02:00 +18°C° 0 mm 3 mps 754 mmHg 83%
03:00 +18°C° 0 mm 3 mps 754 mmHg 84%
04:00 +18°C° 0 mm 3 mps 754 mmHg 85%
05:00 +18°C° 0 mm 3 mps 754 mmHg 85%
06:00 +20°C° 0 mm 3 mps 754 mmHg 79%
07:00 +22°C° 0 mm 3 mps 754 mmHg 72%
08:00 +25°C° 0 mm 4 mps 754 mmHg 65%
09:00 +26°C° 0 mm 4 mps 754 mmHg 60%
10:00 +27°C° 0 mm 4 mps 754 mmHg 55%
11:00 +29°C° 0 mm 4 mps 754 mmHg 49%
12:00 +29°C° 0 mm 4 mps 754 mmHg 48%
13:00 +30°C° 0 mm 4 mps 753 mmHg 47%
14:00 +30°C° 0 mm 4 mps 753 mmHg 46%
15:00 +30°C° 0 mm 4 mps 753 mmHg 48%
16:00 +29°C° 0 mm 4 mps 753 mmHg 50%
17:00 +29°C° 0 mm 4 mps 752 mmHg 51%
18:00 +27°C° 0 mm 3 mps 753 mmHg 58%
19:00 +25°C° 0 mm 3 mps 753 mmHg 64%
20:00 +22°C° 0 mm 3 mps 753 mmHg 70%
21:00 +22°C° 0 mm 3 mps 753 mmHg 74%
22:00 +21°C° 0 mm 3 mps 753 mmHg 79%
23:00 +20°C° 0 mm 4 mps 753 mmHg 83%

8 August, Saturday

Time Temperature Precipitation Wind Pressure Humidity
00:00 +20°C° 0 mm 4 mps 752 mmHg 85%
01:00 +19°C° 0 mm 4 mps 752 mmHg 87%
02:00 +19°C° 0 mm 3 mps 752 mmHg 90%
03:00 +18°C° 0 mm 3 mps 752 mmHg 89%
04:00 +18°C° 0 mm 3 mps 752 mmHg 89%
05:00 +18°C° 0 mm 3 mps 752 mmHg 88%
06:00 +19°C° 0 mm 4 mps 752 mmHg 82%
07:00 +21°C° 0 mm 4 mps 752 mmHg 76%
08:00 +22°C° 0 mm 4 mps 752 mmHg 70%
09:00 +25°C° 0 mm 5 mps 752 mmHg 65%
10:00 +26°C° 0 mm 5 mps 752 mmHg 60%
11:00 +27°C° 0 mm 5 mps 752 mmHg 55%
12:00 +27°C° 0 mm 5 mps 752 mmHg 53%
13:00 +28°C° 0 mm 6 mps 751 mmHg 52%
14:00 +28°C° 0 mm 6 mps 751 mmHg 50%
15:00 +27°C° 0 mm 6 mps 751 mmHg 52%
16:00 +27°C° 0 mm 5 mps 751 mmHg 53%
17:00 +26°C° 0 mm 5 mps 751 mmHg 54%
18:00 +25°C° 0 mm 5 mps 751 mmHg 61%
19:00 +22°C° 0 mm 4 mps 751 mmHg 68%
20:00 +20°C° 0 mm 4 mps 751 mmHg 74%
21:00 +20°C° 0 mm 4 mps 751 mmHg 73%
22:00 +20°C° 0 mm 4 mps 751 mmHg 72%
23:00 +20°C° 0 mm 4 mps 751 mmHg 71%
Show more